IISEREFA2 Weather Reports


Display with metric or nautical units.
time (UTC)temp
F
wind
direction
speed
MPH
gust
MPH
rain 1hr
in
rain 24hr
in
rain mn
in
humidity
%
barometer
mb
20260505124536 61 165 4.0 9.0 0.00 1.62 1.04 81 1010.0
20260505123052 60 0 3.0 10.0 0.00 1.62 1.04 84 1010.1
20260505121534 60 165 4.0 11.0 0.00 1.62 1.04 82 1010.2
20260505120032 60 192 4.0 8.0 0.00 1.62 1.04 83 1010.2
20260505114533 61 211 3.0 7.0 0.00 1.70 1.04 82 1010.3
20260505113037 61 174 2.0 10.0 0.00 1.70 1.04 84 1010.3
20260505111550 60 174 2.0 8.0 0.00 1.70 1.04 86 1010.3
20260505101535 57 175 0.0 8.0 0.00 1.82 1.04 95 1010.6
20260505100034 57 175 0.0 3.0 0.00 1.82 1.04 97 1010.7
20260505094530 56 0 1.0 4.0 0.01 1.89 1.04 97 1010.8
20260505093031 55 175 1.0 3.0 0.03 1.89 1.04 97 1010.7
20260505091534 55 0 0.0 4.0 0.07 1.89 1.04 97 1010.6
20260505090037 54 175 0.0 2.0 0.11 1.89 1.04 97 1010.4
20260505084531 52 0 0.0 3.0 0.12 1.89 1.03 97 1010.4
20260505083040 52 0 0.0 3.0 0.13 1.87 1.00 97 1010.2
20260505081537 52 0 0.0 1.0 0.14 1.83 0.96 97 1010.2
20260505080036 52 0 0.0 2.0 0.14 1.79 0.92 97 1010.2
20260505074533 52 0 0.0 1.0 0.12 1.76 0.89 97 1010.2
20260505073032 52 0 0.0 2.0 0.14 1.73 0.86 97 1010.2
20260505071537 51 0 0.0 2.0 0.13 1.68 0.81 97 1010.1
20260505070039 51 175 0.0 3.0 0.14 1.65 0.78 97 1010.0
20260505064550 51 0 0.0 2.0 0.16 1.62 0.76 97 1010.1
20260505063031 51 0 0.0 1.0 0.16 1.57 0.70 97 1009.9
20260505061538 51 0 0.0 1.0 0.15 1.55 0.68 97 1009.9
20260505060032 51 0 0.0 2.0 0.13 1.49 0.62 97 1010.0
20260505054530 51 0 0.0 0.0 0.13 1.47 0.59 97 1009.8
20260505053030 51 0 0.0 0.0 0.08 1.41 0.54 97 1009.7
20260505051532 51 0 0.0 0.0 0.07 1.40 0.52 97 1009.9
20260505041534 51 0 0.0 0.0 0.02 1.33 0.45 97 1009.7
20260505040031 51 0 0.0 0.0 0.01 1.33 0.44 97 1009.9
20260505034536 51 0 0.0 1.0 0.01 1.32 0.44 97 1010.0
20260505033035 51 0 0.0 4.0 0.02 1.32 0.44 97 1010.0
20260505031531 51 177 0.0 5.0 0.04 1.31 0.43 97 1010.1
20260505030030 51 0 0.0 3.0 0.07 1.31 0.43 97 1010.1
20260505024541 51 180 0.0 2.0 0.08 1.30 0.42 97 1010.1
20260505023030 51 0 0.0 3.0 0.11 1.29 0.41 97 1010.2
20260505021537 51 0 0.0 0.0 0.11 1.26 0.38 97 1010.7
20260505020032 51 0 0.0 1.0 0.10 1.24 0.36 97 1010.7
20260505014537 51 0 0.0 2.0 0.10 1.21 0.33 97 1010.8
20260505013032 51 0 0.0 0.0 0.09 1.18 0.30 97 1011.0
20260505011534 51 0 0.0 0.0 0.07 1.14 0.26 96 1010.9
20260505010031 51 0 0.0 1.0 0.07 1.14 0.25 97 1010.7
20260505004531 52 0 0.0 3.0 0.05 1.11 0.22 97 1011.0
20260505003032 52 0 0.0 2.0 0.04 1.08 0.20 97 1011.2
20260505001540 51 0 0.0 2.0 0.07 1.06 0.18 96 1011.3
20260505000039 52 0 0.0 1.0 0.11 1.06 0.18 97 1011.2
20260504234531 52 0 0.0 4.0 0.12 1.05 0.17 97 1011.2
20260504233035 52 0 0.0 1.0 0.12 1.03 0.15 97 1011.7
20260504231540 52 0 0.0 1.0 0.09 0.98 0.10 96 1012.1
20260504230032 52 0 0.0 2.0 0.07 0.95 0.07 96 1012.0
20260504224537 52 0 0.0 1.0 0.07 0.92 0.04 96 1012.2
20260504223030 52 0 0.0 0.0 0.07 0.91 0.03 96 1012.3
20260504221533 52 0 0.0 0.0 0.07 0.88 0.00 96 1012.3
20260504220035 52 0 0.0 0.0 0.07 0.88 0.00 96 1012.4
20260504214531 52 0 0.0 2.0 0.05 0.85 0.85 96 1012.8
20260504213030 52 0 0.0 0.0 0.05 0.83 0.83 96 1012.9
20260504211531 52 0 0.0 0.0 0.05 0.81 0.81 96 1012.7
20260504210050 52 0 0.0 0.0 0.06 0.80 0.80 96 1012.6
20260504204534 52 0 0.0 1.0 0.07 0.80 0.80 96 1012.5
20260504203035 52 0 0.0 1.0 0.04 0.77 0.77 96 1012.8
20260504201531 52 0 0.0 0.0 0.03 0.76 0.76 96 1012.7
20260504200032 52 0 0.0 3.0 0.01 0.74 0.74 96 1012.8
20260504194542 52 0 0.0 3.0 0.01 0.73 0.73 96 1012.7
20260504193030 52 0 0.0 1.0 0.03 0.73 0.73 96 1012.5
20260504191541 52 0 0.0 3.0 0.04 0.73 0.73 96 1012.7
20260504190040 52 181 0.0 2.0 0.03 0.72 0.72 95 1012.7
20260504184537 52 0 0.0 1.0 0.03 0.71 0.71 95 1012.9
20260504183031 53 0 0.0 1.0 0.00 0.69 0.69 96 1013.0
20260504181530 53 0 0.0 0.0 0.00 0.68 0.68 95 1013.2
20260504180033 53 0 0.0 0.0 0.00 0.68 0.68 95 1013.2
20260504174530 53 0 0.0 0.0 0.01 0.68 0.68 95 1013.5
20260504173035 53 0 0.0 1.0 0.02 0.68 0.68 95 1013.5
20260504171532 53 0 0.0 1.0 0.03 0.68 0.68 95 1013.6